Location: Oshawa
(43.9000°N, 78.8670°W)
Time: 17:29:02
(UTC-04:00)

Cosmos 1408 Rocket - Visible Passes

Search period start: 16 September 2014 00:00
Search period end: 26 September 2014 00:00
Orbit: 602 x 634 km, 82.6° (Epoch: 16 September)

Date Brightness Start Highest point End Pass type
(mag) Time Alt. Az. Time Alt. Az. Time Alt. Az.
16 Sep 7.1 20:22:24 10° WNW 20:23:55 12° W 20:25:26 10° WSW visible
19 Sep 7.4 06:14:11 10° ESE 06:15:41 12° E 06:17:11 10° ENE visible
20 Sep 6.7 06:29:10 10° SE 06:32:25 21° E 06:35:39 10° NE visible
20 Sep 7.4 19:52:39 10° WNW 19:54:06 12° W 19:55:32 10° WSW visible
23 Sep 7.1 05:44:19 10° ESE 05:45:52 12° E 05:47:25 10° ENE visible
24 Sep 6.4 05:59:20 10° SE 06:02:35 21° E 06:05:51 10° NE visible
25 Sep 5.3 06:15:24 10° SSE 06:19:24 37° E 06:23:24 10° NNE visible
